• In Spain
  • List of Countries
  • For 7 days
  • Water Temperature
  • Satellite Maps
  • Weather Map
  • Weather Widgets
  • user-avatar
    Login

    Hourly Weather Oruro

    Today, 13 November, Tuesday

    Time Temperature Precipitation Wind Pressure Humidity
    00:00 +12°C° 0 mm 3 mps 477 mmHg 44%
    01:00 +11°C° 0 mm 3 mps 476 mmHg 43%
    02:00 +11°C° 0 mm 3 mps 476 mmHg 42%
    03:00 +11°C° 0 mm 3 mps 476 mmHg 41%
    04:00 +10°C° 0 mm 2 mps 476 mmHg 39%
    05:00 +10°C° 0 mm 2 mps 476 mmHg 38%
    06:00 +10°C° 0 mm 2 mps 476 mmHg 35%
    07:00 +12°C° 0 mm 2 mps 477 mmHg 32%
    08:00 +12°C° 0 mm 2 mps 477 mmHg 29%
    09:00 +13°C° 0 mm 2 mps 478 mmHg 26%
    10:00 +14°C° 0 mm 2 mps 478 mmHg 22%
    11:00 +15°C° 0 mm 2 mps 479 mmHg 19%
    12:00 +16°C° 0 mm 2 mps 479 mmHg 17%
    13:00 +17°C° 0 mm 3 mps 479 mmHg 15%
    14:00 +18°C° 0 mm 3 mps 479 mmHg 14%
    15:00 +18°C° 0 mm 3 mps 478 mmHg 13%
    16:00 +18°C° 0 mm 4 mps 478 mmHg 12%
    17:00 +18°C° 0 mm 4 mps 478 mmHg 12%
    18:00 +17°C° 0 mm 4 mps 478 mmHg 17%
    19:00 +16°C° 0 mm 3 mps 477 mmHg 22%
    20:00 +13°C° 0 mm 3 mps 477 mmHg 27%
    21:00 +12°C° 0 mm 3 mps 477 mmHg 34%
    22:00 +13°C° 0 mm 2 mps 477 mmHg 40%
    23:00 +12°C° 0 mm 2 mps 477 mmHg 47%

    Tomorrow, 14 November, Wednesday

    Time Temperature Precipitation Wind Pressure Humidity
    00:00 +12°C° 0 mm 2 mps 477 mmHg 48%
    01:00 +10°C° 0 mm 2 mps 477 mmHg 50%
    02:00 +11°C° 0 mm 1 mps 476 mmHg 51%
    03:00 +10°C° 0 mm 1 mps 476 mmHg 52%
    04:00 +10°C° 0 mm 1 mps 476 mmHg 52%
    05:00 +10°C° 0 mm 1 mps 475 mmHg 52%
    06:00 +10°C° 0 mm 1 mps 476 mmHg 44%
    07:00 +11°C° 0 mm 1 mps 476 mmHg 37%
    08:00 +11°C° 0 mm 1 mps 477 mmHg 29%
    09:00 +13°C° 0 mm 1 mps 478 mmHg 25%
    10:00 +14°C° 0 mm 1 mps 478 mmHg 22%
    11:00 +15°C° 0 mm 1 mps 479 mmHg 18%
    12:00 +16°C° 0 mm 1 mps 479 mmHg 17%
    13:00 +17°C° 0 mm 2 mps 479 mmHg 16%
    14:00 +18°C° 0 mm 2 mps 479 mmHg 15%
    15:00 +18°C° 0 mm 2 mps 478 mmHg 15%
    16:00 +18°C° 0 mm 2 mps 478 mmHg 15%
    17:00 +18°C° 0 mm 2 mps 478 mmHg 15%
    18:00 +17°C° 0 mm 3 mps 477 mmHg 23%
    19:00 +15°C° 0 mm 4 mps 477 mmHg 30%
    20:00 +13°C° 0 mm 5 mps 477 mmHg 38%
    21:00 +12°C° 0 mm 4 mps 477 mmHg 44%
    22:00 +11°C° 0 mm 4 mps 477 mmHg 51%
    23:00 +11°C° 0 mm 4 mps 477 mmHg 58%

    Day after tomorrow, 15 November, Thursday

    Time Temperature Precipitation Wind Pressure Humidity
    00:00 +10°C° 0 mm 3 mps 476 mmHg 59%
    01:00 +10°C° 0 mm 3 mps 476 mmHg 61%
    02:00 +9°C° 0 mm 3 mps 475 mmHg 62%
    03:00 +9°C° 0 mm 3 mps 475 mmHg 63%
    04:00 +9°C° 0 mm 2 mps 475 mmHg 64%
    05:00 +9°C° 0 mm 2 mps 475 mmHg 64%
    06:00 +9°C° 0 mm 2 mps 475 mmHg 61%
    07:00 +10°C° 0 mm 2 mps 476 mmHg 57%
    08:00 +10°C° 0 mm 2 mps 477 mmHg 53%
    09:00 +13°C° 0 mm 2 mps 478 mmHg 46%
    10:00 +14°C° 0 mm 2 mps 478 mmHg 38%
    11:00 +16°C° 0 mm 1 mps 479 mmHg 31%
    12:00 +18°C° 0 mm 1 mps 479 mmHg 28%
    13:00 +18°C° 0 mm 2 mps 479 mmHg 25%
    14:00 +19°C° 0 mm 2 mps 479 mmHg 23%
    15:00 +18°C° 0.2 mm 2 mps 478 mmHg 24%
    16:00 +18°C° 0.2 mm 3 mps 478 mmHg 25%
    17:00 +18°C° 0.2 mm 4 mps 478 mmHg 26%
    18:00 +17°C° 0.1 mm 4 mps 477 mmHg 32%
    19:00 +15°C° 0.1 mm 5 mps 477 mmHg 38%
    20:00 +14°C° 0.1 mm 5 mps 477 mmHg 44%
    21:00 +13°C° 0 mm 5 mps 477 mmHg 48%
    22:00 +12°C° 0 mm 4 mps 477 mmHg 53%
    23:00 +11°C° 0 mm 4 mps 477 mmHg 57%

    16 November, Friday

    Time Temperature Precipitation Wind Pressure Humidity
    00:00 +11°C° 0 mm 3 mps 476 mmHg 60%
    01:00 +10°C° 0 mm 3 mps 476 mmHg 62%
    02:00 +10°C° 0 mm 2 mps 475 mmHg 64%
    03:00 +10°C° 0 mm 2 mps 475 mmHg 66%
    04:00 +9°C° 0 mm 2 mps 475 mmHg 67%
    05:00 +10°C° 0 mm 1 mps 475 mmHg 68%
    06:00 +11°C° 0 mm 1 mps 476 mmHg 63%
    07:00 +11°C° 0 mm 1 mps 477 mmHg 59%
    08:00 +12°C° 0 mm 1 mps 478 mmHg 55%
    09:00 +14°C° 0 mm 2 mps 478 mmHg 46%
    10:00 +15°C° 0 mm 2 mps 479 mmHg 38%
    11:00 +17°C° 0 mm 3 mps 480 mmHg 30%
    12:00 +18°C° 0 mm 3 mps 480 mmHg 29%
    13:00 +18°C° 0 mm 4 mps 480 mmHg 27%
    14:00 +19°C° 0 mm 5 mps 480 mmHg 25%
    15:00 +19°C° 0 mm 5 mps 479 mmHg 28%
    16:00 +17°C° 0 mm 6 mps 478 mmHg 30%
    17:00 +17°C° 0 mm 7 mps 478 mmHg 33%
    18:00 +15°C° 0 mm 8 mps 477 mmHg 41%
    19:00 +13°C° 0 mm 8 mps 477 mmHg 48%
    20:00 +11°C° 0 mm 9 mps 476 mmHg 56%
    21:00 +10°C° 0 mm 8 mps 476 mmHg 58%
    22:00 +10°C° 0 mm 7 mps 477 mmHg 60%
    23:00 +9°C° 0 mm 6 mps 477 mmHg 62%

    17 November, Saturday

    Time Temperature Precipitation Wind Pressure Humidity
    00:00 +9°C° 0 mm 5 mps 476 mmHg 63%
    01:00 +10°C° 0 mm 4 mps 476 mmHg 64%
    02:00 +10°C° 0 mm 3 mps 476 mmHg 64%
    03:00 +10°C° 0 mm 3 mps 476 mmHg 65%
    04:00 +10°C° 0 mm 2 mps 476 mmHg 65%
    05:00 +10°C° 0 mm 2 mps 476 mmHg 65%
    06:00 +10°C° 0 mm 2 mps 476 mmHg 63%
    07:00 +10°C° 0 mm 2 mps 477 mmHg 61%
    08:00 +12°C° 0 mm 2 mps 477 mmHg 59%
    09:00 +13°C° 0 mm 2 mps 478 mmHg 53%
    10:00 +14°C° 0 mm 2 mps 479 mmHg 47%
    11:00 +16°C° 0 mm 2 mps 479 mmHg 41%
    12:00 +17°C° 0.1 mm 2 mps 479 mmHg 38%
    13:00 +17°C° 0.1 mm 2 mps 479 mmHg 36%
    14:00 +18°C° 0.1 mm 2 mps 478 mmHg 33%
    15:00 +18°C° 0.1 mm 3 mps 478 mmHg 34%
    16:00 +18°C° 0.1 mm 3 mps 478 mmHg 34%
    17:00 +18°C° 0.1 mm 4 mps 477 mmHg 35%
    18:00 +17°C° 0 mm 4 mps 477 mmHg 41%
    19:00 +14°C° 0 mm 5 mps 477 mmHg 46%
    20:00 +13°C° 0 mm 5 mps 477 mmHg 52%
    21:00 +12°C° 0.1 mm 5 mps 477 mmHg 55%
    22:00 +12°C° 0.1 mm 5 mps 477 mmHg 58%
    23:00 +11°C° 0.1 mm 4 mps 476 mmHg 61%

    18 November, Sunday

    Time Temperature Precipitation Wind Pressure Humidity
    00:00 +11°C° 0.2 mm 4 mps 476 mmHg 62%
    01:00 +10°C° 0.2 mm 4 mps 476 mmHg 62%
    02:00 +10°C° 0.2 mm 3 mps 476 mmHg 63%
    03:00 +10°C° 0 mm 3 mps 475 mmHg 64%
    04:00 +10°C° 0 mm 2 mps 475 mmHg 65%
    05:00 +10°C° 0 mm 2 mps 475 mmHg 65%
    06:00 +10°C° 0 mm 2 mps 476 mmHg 62%
    07:00 +12°C° 0 mm 2 mps 476 mmHg 59%
    08:00 +12°C° 0 mm 2 mps 477 mmHg 56%
    09:00 +13°C° 0 mm 3 mps 478 mmHg 50%
    10:00 +14°C° 0 mm 3 mps 479 mmHg 44%
    11:00 +17°C° 0 mm 4 mps 479 mmHg 37%
    12:00 +17°C° 0 mm 5 mps 479 mmHg 36%
    13:00 +17°C° 0 mm 5 mps 479 mmHg 35%
    14:00 +19°C° 0 mm 6 mps 479 mmHg 34%
    15:00 +17°C° 0.1 mm 7 mps 478 mmHg 38%
    16:00 +16°C° 0.1 mm 7 mps 477 mmHg 41%
    17:00 +16°C° 0.1 mm 8 mps 477 mmHg 45%
    18:00 +13°C° 0 mm 8 mps 476 mmHg 50%
    19:00 +12°C° 0 mm 8 mps 476 mmHg 56%
    20:00 +11°C° 0 mm 8 mps 476 mmHg 61%
    21:00 +10°C° 0 mm 7 mps 476 mmHg 63%
    22:00 +10°C° 0 mm 6 mps 476 mmHg 65%
    23:00 +9°C° 0 mm 5 mps 476 mmHg 67%
    Show more